Theta_e
340 333 330 332 333 333 332 331 332 332 333 334 335 335 336 338 339 341 341 341 341 341 341 340 339 339 339 340 339 339 340 341 341 342 342 343 343 343 343 344 343 344 345 345 345 343 343 344 346 348 349 347 344 343 343 345 346 346 348 350 348 346 345 343 341 341 343 344 343 342 342 342 341 342 343 345 346 348 352 353 353 353 352 346 345
348 342 335 331 332 333 333 332 331 331 332 333 334 334 334 335 336 339 340 341 342 342 342 341 339 338 337 338 338 337 337 337 339 339 340 340 342 342 343 343 343 343 343 343 344 344 343 342 343 346 349 349 346 343 343 345 347 348 349 349 350 350 349 348 345 342 341 339 337 337 338 339 339 337 340 344 348 350 352 354 354 353 351 347 347
350 349 344 336 332 332 333 333 333 332 331 333 333 333 333 333 335 336 338 340 341 342 343 343 341 339 338 338 337 337 337 336 336 336 336 337 338 340 341 342 343 343 343 342 342 342 343 342 341 343 345 345 343 342 340 342 347 350 349 348 349 350 351 352 350 348 345 340 337 336 338 340 340 338 338 341 344 346 347 348 348 346 345 344 346
351 353 352 346 339 336 336 336 336 335 333 333 333 334 334 335 338 337 337 339 340 340 342 343 343 342 340 339 338 337 336 336 336 334 334 334 335 336 338 340 341 341 341 341 341 341 341 341 341 341 341 342 342 342 341 340 342 347 350 349 348 349 350 351 352 351 350 347 344 343 344 344 343 340 339 339 339 339 339 339 340 341 342 344 346
354 355 355 353 350 349 348 346 342 338 336 336 335 335 336 340 344 344 342 341 340 341 344 344 345 343 340 337 336 336 335 335 334 333 332 333 334 334 335 336 337 337 338 338 339 340 340 341 342 341 340 339 339 340 340 340 340 342 346 347 347 348 350 350 350 350 351 350 349 348 349 347 345 342 342 341 338 336 335 336 340 343 345 346 348
355 355 355 356 357 356 356 354 349 345 343 342 341 340 339 342 347 350 349 347 344 345 346 347 347 345 341 338 336 335 335 334 333 332 331 331 332 333 333 333 334 334 334 334 333 334 335 336 338 339 338 337 336 337 337 338 340 340 341 342 344 347 348 349 350 350 350 350 350 349 348 348 346 343 341 342 341 336 334 335 338 341 346 349 349
355 355 355 357 357 356 355 355 354 352 351 350 350 348 345 343 345 349 351 351 349 348 347 347 347 347 344 342 339 336 335 334 333 332 331 330 330 331 331 330 332 332 332 331 330 330 330 330 331 332 333 332 332 332 333 335 337 337 338 339 340 342 344 345 347 348 349 349 349 348 347 346 344 341 338 339 339 336 336 337 336 336 343 350 351
354 354 355 356 356 354 353 354 356 356 355 355 354 354 351 347 345 346 348 350 350 348 347 346 346 346 345 344 343 341 339 336 334 332 330 329 328 328 327 327 328 328 328 328 328 328 328 328 327 327 327 328 327 327 329 334 339 341 341 342 342 342 342 342 342 343 343 344 344 345 343 343 340 339 337 337 336 335 337 340 339 335 341 349 350
352 352 353 353 353 353 352 352 355 355 355 354 356 356 355 351 349 348 348 349 349 349 348 348 347 345 344 344 345 345 343 342 339 336 333 331 329 328 326 325 325 325 326 326 326 326 326 326 326 326 325 325 326 326 328 333 341 345 345 345 345 345 344 343 343 342 341 342 341 340 340 340 338 337 336 335 335 336 337 341 340 337 340 344 344
353 353 353 352 353 353 352 352 353 354 354 353 355 356 356 354 352 350 350 349 348 348 349 349 349 347 345 344 344 345 345 344 343 341 340 338 336 334 332 330 327 326 325 325 325 325 325 325 325 325 325 326 326 327 327 329 335 341 344 345 346 345 346 345 345 344 343 343 341 340 341 339 336 334 333 331 331 333 334 336 338 337 336 338 338
353 353 353 353 353 353 353 352 353 353 353 353 353 354 355 355 354 353 351 349 348 347 348 348 349 349 348 346 345 345 345 344 344 343 342 342 342 341 340 338 336 334 330 328 326 325 326 326 326 325 325 326 325 325 326 327 329 334 339 342 342 341 341 342 343 344 344 343 341 340 341 339 336 334 332 330 329 330 330 331 333 334 336 338 340
352 353 352 353 353 352 352 352 352 353 354 354 354 354 354 354 353 353 352 350 348 347 348 348 348 348 349 348 346 346 345 345 345 345 344 344 343 343 343 342 341 340 338 335 331 328 326 326 326 326 326 326 326 325 327 327 327 330 335 339 340 339 339 340 341 342 343 343 342 340 340 339 338 336 334 332 332 333 333 332 332 332 334 337 340
350 351 351 352 352 352 351 351 351 352 352 354 354 354 354 354 353 352 351 350 349 348 349 349 347 346 348 349 348 347 345 344 344 345 345 345 344 344 344 343 343 343 342 341 340 337 334 332 329 329 327 327 327 327 327 327 327 328 330 333 336 337 338 340 341 341 342 342 343 342 339 339 339 336 333 333 336 338 337 337 336 336 337 339 339
347 348 348 350 351 352 352 352 352 352 352 352 352 353 353 354 354 353 352 351 350 349 350 351 350 347 347 348 349 348 346 344 344 343 344 345 345 345 345 345 345 345 344 343 344 344 343 343 341 338 336 335 334 332 331 330 329 328 328 330 331 332 333 336 337 337 338 338 339 339 337 337 337 333 332 335 339 340 340 340 342 342 342 341 339
340 342 343 344 345 346 346 347 349 352 352 352 352 352 352 353 353 354 354 354 353 351 350 351 352 350 348 347 347 346 346 345 344 344 343 343 344 345 345 346 346 346 346 346 346 346 346 346 346 346 345 344 343 342 342 340 336 334 332 333 335 335 335 335 335 334 334 333 334 334 332 332 333 332 333 337 340 341 341 343 345 345 345 344 342
332 336 339 339 340 341 341 340 342 346 349 350 350 351 352 352 352 353 353 354 354 353 352 352 353 353 352 350 348 347 346 345 345 345 344 344 344 344 346 347 346 347 347 347 348 348 348 348 347 347 347 347 347 347 347 347 345 342 341 339 340 340 340 340 340 339 339 339 338 337 336 335 336 336 337 339 341 342 344 344 345 345 345 346 342
324 329 333 335 336 338 339 337 337 339 341 345 347 348 349 350 351 351 352 352 352 353 353 352 353 353 353 352 351 350 349 347 346 345 346 347 347 346 345 346 346 346 346 346 347 348 348 348 348 348 348 347 348 348 348 348 348 347 346 345 345 344 345 345 344 344 344 344 344 343 343 342 342 341 341 342 343 344 346 346 346 345 347 348 344
318 319 323 326 329 334 336 335 333 334 336 338 341 343 344 346 347 348 349 350 350 352 352 352 352 352 352 352 352 352 352 351 348 347 347 349 350 349 349 348 348 348 347 347 348 348 348 348 348 349 348 348 348 348 348 349 348 349 348 348 348 348 348 348 348 348 347 346 346 347 346 347 347 346 346 346 346 346 348 348 346 347 349 349 347
318 317 318 318 322 329 332 330 327 330 333 335 336 338 339 340 342 344 346 348 349 350 351 351 352 352 352 352 352 353 353 353 351 349 348 348 349 351 352 351 351 350 349 348 348 348 348 349 349 349 349 349 348 348 349 349 349 349 349 349 349 350 350 349 349 349 349 348 348 349 348 349 350 349 349 349 349 349 349 349 348 349 350 350 349
318 316 317 318 318 321 324 323 322 326 331 334 335 335 335 337 339 340 341 344 347 349 350 351 351 352 353 353 353 353 353 352 352 351 350 349 350 350 352 353 352 352 351 350 350 350 350 350 350 351 352 351 350 350 350 350 350 349 349 349 350 350 351 350 351 350 350 350 349 349 350 351 351 352 352 351 351 350 350 349 349 349 349 348 348
319 317 316 316 317 318 318 318 318 322 326 328 331 333 334 336 339 339 339 340 343 346 349 351 352 352 352 353 353 353 353 353 352 352 352 352 352 352 353 353 353 353 354 353 353 352 351 351 351 353 354 353 353 352 351 352 352 352 351 351 351 352 352 352 352 352 352 351 351 350 352 352 353 354 353 353 352 352 351 351 350 350 349 348 346
317 316 315 314 316 317 317 317 317 318 319 320 323 327 330 334 337 339 340 340 339 339 342 345 348 350 352 353 354 354 354 354 354 353 353 353 353 354 353 353 353 353 354 354 353 353 352 351 352 352 354 354 353 353 353 354 354 354 354 354 355 355 355 354 354 354 354 354 354 354 354 355 355 355 355 354 354 354 353 353 351 350 349 347 346
317 315 314 313 315 316 316 316 315 314 315 315 317 320 325 331 335 336 339 341 340 337 335 335 337 341 345 350 353 353 353 354 354 353 353 353 353 354 353 353 353 353 353 353 353 353 352 352 353 354 354 354 355 354 355 355 356 355 355 356 356 356 355 355 356 356 356 356 357 357 356 356 356 356 355 354 353 354 354 353 352 351 350 348 346
320 318 316 315 316 316 315 314 312 312 313 314 316 318 322 328 334 336 338 341 341 339 337 335 332 331 334 338 343 346 347 350 352 353 353 353 353 353 353 353 353 353 353 354 354 354 353 353 352 353 354 356 356 356 357 356 356 355 355 356 356 356 356 356 356 356 357 357 357 357 357 357 357 357 356 355 354 355 355 354 353 352 351 349 346
319 319 318 320 320 319 316 314 312 311 313 315 319 322 323 325 331 335 336 338 339 339 339 337 333 329 327 328 330 334 337 341 345 349 351 352 353 353 353 353 353 354 354 355 355 356 356 355 354 354 354 354 355 356 356 356 356 356 355 355 356 356 356 357 357 357 356 356 356 356 356 357 357 357 357 357 357 357 357 356 354 354 353 352 349
315 316 317 320 322 322 320 318 316 314 313 315 321 326 327 326 328 331 331 332 332 332 331 329 326 324 323 322 322 325 328 331 335 338 341 346 350 352 354 354 354 354 354 355 356 356 356 356 355 354 354 354 354 355 355 356 355 356 356 356 356 356 357 357 357 357 357 356 356 356 355 355 356 356 357 357 358 358 358 357 356 356 356 355 354
310 312 314 317 320 321 322 323 323 320 317 316 318 323 327 328 327 326 325 324 322 320 319 319 319 319 320 320 320 322 324 325 327 329 332 336 341 345 349 352 353 354 354 354 355 355 355 355 355 355 354 354 354 354 354 355 355 355 356 356 356 356 356 356 356 356 355 355 355 355 355 355 355 355 355 356 357 357 356 357 357 357 356 355 355
310 310 312 315 318 320 323 325 325 324 322 320 319 319 321 322 321 320 319 319 317 316 317 317 318 319 319 319 319 320 321 323 324 323 325 328 331 335 339 343 347 350 352 353 354 354 354 354 354 355 355 355 354 354 354 354 354 354 355 355 355 356 355 355 355 355 355 355 355 355 355 355 355 355 355 355 355 356 356 356 357 357 357 357 356
314 312 311 313 316 320 323 324 324 324 323 323 322 321 319 318 316 315 316 316 317 318 318 317 318 318 318 318 319 319 319 320 322 322 322 323 325 328 331 334 338 342 344 346 349 351 353 354 354 354 355 355 355 355 355 355 355 355 355 355 355 355 355 355 355 355 355 355 355 355 355 355 355 355 355 354 354 354 356 356 357 357 357 358 357
316 315 313 312 314 318 322 323 323 324 324 324 324 323 322 320 318 317 315 315 315 317 318 319 320 320 318 317 318 318 319 320 320 320 323 324 325 327 330 331 333 336 338 340 342 344 346 348 349 351 353 354 355 355 355 356 356 356 356 356 356 356 356 355 355 355 354 353 353 355 355 355 355 355 354 354 353 354 355 356 357 357 357 357 356
317 317 315 314 315 319 322 323 323 324 325 325 324 324 323 322 319 318 316 315 314 315 317 318 320 319 318 316 316 316 318 322 323 323 324 327 328 328 329 330 331 333 335 337 339 341 342 343 343 345 346 348 350 352 353 353 354 355 355 356 356 357 356 356 356 356 354 353 352 353 355 355 354 355 355 355 355 356 357 357 358 358 357 357 356
316 317 316 315 315 318 321 323 323 324 324 324 324 324 323 321 320 319 318 318 317 317 317 317 316 316 314 314 317 319 320 322 325 326 326 326 327 327 327 328 330 332 334 336 337 339 340 341 343 343 343 344 345 347 348 348 349 351 353 354 355 356 356 356 356 356 356 354 352 351 353 355 355 355 355 357 358 359 359 359 358 357 356 356 355
316 317 316 316 316 317 319 321 322 322 323 324 324 323 322 321 320 320 320 320 319 318 317 317 316 315 314 313 317 323 323 322 323 325 325 325 326 328 329 329 331 333 335 336 336 335 335 337 340 343 345 346 345 345 346 346 346 348 350 351 351 353 353 354 354 355 356 356 353 351 350 352 354 355 355 356 357 358 358 358 357 356 355 355 355
317 317 317 317 318 318 319 320 321 322 322 322 322 321 320 321 321 322 322 321 320 319 318 317 316 316 314 313 314 318 322 324 325 326 327 328 330 331 331 331 333 334 335 334 333 332 330 331 334 338 342 345 347 347 348 349 349 349 349 349 350 350 350 351 352 353 354 354 354 352 350 349 351 353 354 355 356 357 358 358 357 356 356 355 355
317 317 317 318 319 319 319 319 319 320 321 321 320 320 319 320 321 322 322 321 320 319 318 317 316 316 315 314 315 318 321 325 328 329 330 332 332 332 332 332 332 332 332 331 330 329 328 329 332 335 338 343 346 347 348 348 349 349 350 350 351 351 350 351 351 352 352 352 352 352 351 350 349 351 354 354 355 356 357 357 357 358 358 357 356
317 317 317 317 318 318 319 319 319 319 319 319 320 320 320 320 321 321 321 321 320 319 318 317 317 316 315 315 317 320 323 325 327 329 330 331 331 331 331 331 331 330 330 329 329 327 326 326 328 331 335 339 341 344 345 346 347 348 349 350 351 351 351 352 352 353 353 353 352 351 352 351 350 352 354 356 355 355 356 356 357 357 358 356 356
315 316 317 317 317 318 318 318 318 318 319 319 320 321 321 321 321 321 320 320 319 318 318 317 316 316 315 315 316 318 320 322 325 326 327 328 329 329 329 328 328 328 328 327 327 326 325 324 324 325 327 329 331 333 335 338 340 344 347 349 350 351 351 352 353 353 354 355 354 353 353 353 352 351 353 355 355 355 357 357 357 358 357 355 354
313 314 315 316 317 317 318 318 319 319 319 320 320 320 320 320 320 319 319 319 318 317 317 316 316 316 316 316 316 316 317 318 320 323 324 325 325 326 325 325 325 325 324 324 324 324 324 323 323 323 323 323 324 325 326 327 329 333 338 343 348 350 350 351 352 353 354 354 355 355 354 354 353 353 354 355 356 356 356 356 356 357 357 355 353
311 313 314 315 316 317 318 318 319 319 319 319 319 319 319 319 318 318 318 317 317 316 316 316 316 317 316 316 317 317 317 317 318 319 320 321 321 321 321 321 322 322 322 322 322 322 322 322 322 322 321 322 322 322 323 324 325 326 330 336 341 346 348 349 350 351 352 353 354 354 354 354 353 353 354 355 355 355 356 356 356 356 355 355 354
309 310 311 312 314 315 316 317 317 317 318 318 318 318 318 318 318 317 317 317 316 316 316 317 317 317 317 317 317 317 317 317 318 318 318 318 318 318 318 318 318 319 319 319 319 320 320 321 321 321 321 322 322 322 322 323 324 325 326 328 332 337 343 346 347 348 349 350 351 352 352 352 352 352 352 352 353 353 354 354 354 354 354 354 355
308 308 309 309 309 310 312 312 313 314 315 316 317 317 317 317 317 316 316 316 315 315 315 316 316 316 317 317 317 317 317 317 317 317 317 317 317 317 317 316 316 316 316 317 317 318 318 319 320 321 321 322 322 323 323 323 323 324 325 326 327 329 333 336 339 341 343 344 346 348 349 349 350 351 351 352 352 352 352 352 353 354 354 353 353
307 307 307 307 307 307 308 309 310 311 311 313 313 314 315 315 315 315 315 315 315 314 314 314 315 315 316 316 316 316 316 317 316 316 316 316 316 315 315 315 314 314 314 315 315 316 317 318 318 319 321 322 323 323 323 323 323 323 324 325 326 326 328 329 331 332 334 336 339 343 345 347 348 349 351 352 352 352 353 353 353 354 354 353 353
305 305 305 305 305 305 306 307 309 309 309 309 310 310 310 311 311 312 312 312 313 313 313 313 314 314 315 315 315 315 316 316 316 316 315 315 314 314 314 313 313 312 312 313 314 314 315 316 317 319 320 321 323 324 324 324 324 324 324 325 325 326 327 328 329 330 330 331 333 337 341 344 346 347 349 350 350 351 352 353 354 354 354 353 354
304 304 303 303 304 304 304 305 306 307 307 307 307 308 308 308 308 309 309 310 310 311 311 312 312 313 313 314 314 314 314 314 315 314 314 314 313 313 312 312 312 311 312 312 312 313 313 315 316 317 318 319 320 322 324 324 324 324 324 325 326 326 327 328 328 328 329 329 330 332 334 337 340 343 345 348 349 349 350 350 351 352 353 352 352
304 303 302 302 302 303 303 304 304 305 306 306 307 307 307 307 307 307 308 308 308 309 309 310 310 311 311 311 312 312 313 313 313 313 313 312 312 311 311 311 311 311 311 311 312 312 313 314 315 315 316 317 318 320 322 323 323 323 324 324 325 325 326 327 327 328 329 329 329 330 330 332 334 336 339 342 344 346 347 348 349 349 349 350 350
302 302 301 301 302 303 304 304 305 305 305 306 306 307 307 307 307 307 308 308 308 309 309 309 309 309 310 310 311 312 312 312 312 312 312 311 310 310 310 311 310 310 311 311 312 312 313 314 314 315 316 317 317 318 320 321 321 322 322 322 322 323 324 325 327 328 330 330 329 329 330 331 332 332 334 336 338 340 342 344 345 345 346 346 347
300 300 301 301 302 303 304 304 304 304 304 304 305 305 305 306 306 307 307 308 308 308 308 309 309 309 309 310 311 311 311 311 310 310 310 310 309 309 309 309 309 310 310 311 311 312 313 314 314 315 315 316 317 317 318 319 319 319 320 320 321 321 323 324 326 327 329 329 329 330 330 331 332 332 333 334 335 337 338 339 341 342 343 343 343
299 300 301 302 302 302 303 303 303 303 304 304 304 304 304 305 305 305 306 306 306 307 307 308 308 308 308 309 309 309 309 309 309 308 308 308 308 308 308 309 309 309 310 310 311 312 312 313 313 314 314 314 315 316 317 317 317 317 318 318 319 320 321 323 325 326 327 329 330 331 331 331 332 333 333 334 334 335 336 337 338 339 339 340 340
299 299 300 300 300 301 301 302 302 302 303 303 303 303 303 304 304 304 305 306 306 307 307 308 308 308 308 308 308 308 308 308 308 307 307 307 307 308 308 308 308 309 309 310 310 311 311 312 312 312 312 312 313 314 315 316 317 317 317 317 318 319 320 321 323 324 325 327 329 330 330 330 331 331 331 332 332 333 333 333 334 335 335 336 336
298 298 298 299 299 299 299 299 300 300 301 301 302 302 302 302 303 303 304 305 305 306 306 307 307 307 307 307 307 308 308 307 307 306 306 306 306 306 306 307 307 307 308 308 309 309 309 309 309 309 310 310 311 312 313 315 316 318 318 318 319 320 321 321 322 323 324 326 327 328 328 328 328 328 328 329 330 330 331 331 331 331 332 332 333
296 297 297 298 298 297 297 297 298 298 298 299 300 300 301 301 302 302 303 303 304 304 305 305 305 305 305 305 305 305 305 305 305 305 305 304 304 304 304 305 305 306 306 306 307 307 307 308 308 308 308 308 309 309 311 313 315 317 318 319 319 320 321 321 322 322 323 323 325 325 325 325 326 326 326 327 328 328 329 330 330 330 330 330 331
Wind_Speed
22 24 25 26 26 26 26 25 25 24 24 22 21 19 17 17 17 16 16 16 15 14 14 13 13 12 12 12 12 12 13 13 12 12 12 12 12 12 12 12 12 10 10 10 11 11 11 12 12 12 12 13 13 14 15 15 14 12 9 7 9 12 13 13 15 16 16 14 12 11 11 12 12 12 13 12 11 12 12 14 16 18 19 18 16
21 23 25 26 26 26 25 25 24 24 24 24 23 21 19 18 17 16 17 17 17 16 15 15 14 14 13 13 12 12 13 13 13 13 13 13 13 13 13 13 13 12 12 12 11 11 12 13 13 13 13 14 13 12 13 15 14 13 10 7 7 9 11 12 13 14 16 16 15 14 13 13 13 13 13 13 13 13 13 15 18 20 21 20 17
22 21 23 26 27 27 26 25 24 23 23 24 23 23 21 19 18 17 17 16 17 18 17 16 16 16 15 14 13 14 14 13 13 14 14 14 14 14 14 14 14 13 13 13 12 12 12 13 13 12 13 13 13 11 11 13 15 15 13 10 9 9 10 11 13 13 14 15 15 15 14 14 14 13 13 14 15 16 17 18 20 21 21 19 17
25 25 24 25 26 27 26 25 24 23 23 22 22 22 22 21 19 19 18 17 17 17 17 16 16 17 16 15 15 15 16 15 14 15 15 14 14 14 15 15 15 15 14 13 13 13 13 14 13 13 13 13 12 11 11 12 14 16 16 14 13 12 11 12 13 14 15 16 16 16 16 16 15 14 14 16 17 17 18 18 18 18 16 16 16
28 28 28 27 27 27 26 25 24 24 22 22 21 21 21 22 21 20 19 18 17 17 17 17 17 17 17 16 15 16 17 17 17 16 16 15 15 14 15 16 16 16 15 14 14 14 14 15 14 14 14 14 13 13 12 12 13 15 17 18 17 16 15 13 13 14 15 18 19 19 19 20 20 18 18 20 19 18 17 17 16 15 14 15 16
28 28 28 29 29 28 26 26 25 23 22 21 20 20 21 22 22 22 21 20 19 18 18 18 18 18 17 16 16 16 17 18 18 17 16 15 15 15 15 16 17 17 17 16 15 15 15 16 15 15 16 16 16 15 14 14 14 14 15 16 17 19 19 18 17 16 17 19 21 22 23 23 23 22 21 20 18 18 18 17 15 15 15 16 18
24 26 28 28 27 26 26 27 27 24 22 20 20 20 21 23 23 23 23 22 21 20 20 20 20 20 19 17 17 16 16 17 18 18 17 16 16 16 15 16 17 17 17 17 16 16 16 15 15 15 16 17 17 16 15 14 14 14 13 12 13 15 17 19 19 20 21 22 24 24 24 23 23 22 20 18 18 18 18 18 18 17 16 16 17
19 21 24 27 26 25 27 28 28 25 23 22 22 21 22 23 24 24 23 24 24 22 21 20 21 22 22 21 19 17 17 17 17 18 19 19 18 18 18 17 17 18 18 18 18 18 17 16 16 16 16 17 17 17 15 13 12 12 12 12 12 13 14 15 16 18 20 22 23 23 23 22 21 20 19 18 19 18 18 19 21 20 17 16 16
15 15 17 21 23 24 25 25 25 25 25 24 23 23 24 24 24 24 24 24 25 25 24 23 22 22 23 23 22 20 20 19 18 17 18 19 19 20 20 20 20 20 20 20 20 20 20 19 19 18 18 18 18 17 15 13 12 13 14 15 16 17 18 18 18 18 19 20 21 21 22 22 21 21 21 19 19 19 19 20 21 20 18 18 17
11 13 14 17 19 20 21 21 21 23 25 25 25 24 25 24 24 25 25 25 25 26 26 27 27 26 24 24 24 24 23 21 19 18 17 17 17 18 19 21 21 22 22 22 22 21 21 21 21 20 20 20 19 19 17 15 14 15 16 17 18 19 21 21 21 21 22 22 23 23 23 24 23 22 23 22 21 21 21 21 22 21 20 20 19
10 12 14 15 16 17 18 18 18 19 21 23 24 24 25 25 26 26 26 26 25 25 25 26 29 29 28 27 27 27 26 25 23 21 19 18 18 18 18 19 20 22 23 25 25 24 23 22 22 22 22 22 22 22 21 19 18 17 17 18 19 20 21 23 23 24 24 25 25 25 25 26 24 23 23 23 23 23 24 23 23 23 22 21 21
9 10 10 9 10 12 14 14 15 16 18 20 22 23 24 25 26 27 28 27 26 25 23 23 25 28 30 30 29 29 28 27 27 25 24 22 21 21 21 20 19 20 21 22 24 26 26 26 25 25 24 24 24 24 24 23 22 21 21 21 21 21 22 24 26 26 27 28 29 28 28 27 26 25 24 25 24 25 25 25 25 25 25 24 23
7 7 8 7 7 9 9 10 12 14 16 18 19 21 22 23 25 27 28 28 28 26 24 22 22 25 28 31 32 31 30 29 28 27 27 26 24 23 23 23 23 22 21 20 20 21 23 24 25 25 24 24 25 26 26 26 26 26 25 25 25 25 26 26 26 26 27 29 31 31 30 29 29 28 27 27 27 27 28 27 27 28 28 27 27
6 6 6 7 7 8 8 8 9 11 13 15 16 17 19 20 21 24 26 27 28 28 26 24 23 24 26 29 32 33 33 32 30 28 28 27 26 25 24 24 26 26 25 24 22 20 20 20 21 21 21 22 23 24 25 27 27 28 28 27 27 27 27 28 28 28 28 29 31 32 31 30 31 30 28 28 29 29 29 29 29 30 30 30 30
8 7 6 6 6 6 6 6 7 8 10 11 13 15 16 18 18 20 22 25 27 28 28 27 26 26 26 27 29 32 33 34 33 32 30 28 27 27 27 26 26 27 27 27 26 25 23 22 22 21 20 20 20 21 22 24 26 27 28 28 27 27 28 28 29 29 30 31 32 33 32 31 30 30 29 29 30 30 29 30 30 30 31 31 32
9 7 7 6 6 5 5 4 6 8 9 10 11 12 14 16 17 17 19 20 23 25 27 27 27 28 29 29 29 30 32 33 34 34 32 30 28 28 28 28 27 27 28 28 28 27 27 26 26 25 24 23 22 21 22 23 25 27 28 29 29 30 31 31 30 30 30 31 32 32 32 31 31 31 30 29 30 30 29 30 28 27 29 31 31
11 8 6 5 4 3 3 2 2 4 6 8 9 11 12 13 15 17 18 19 20 22 24 25 26 28 29 30 31 32 32 33 33 33 32 30 29 29 29 29 29 30 31 30 30 30 30 30 30 30 29 28 26 25 25 25 27 28 29 30 31 33 34 33 33 33 33 34 34 34 34 33 32 32 30 29 29 29 29 30 27 25 27 29 29
11 9 7 5 3 3 3 5 5 3 0 2 4 6 9 11 14 16 18 18 19 20 21 23 24 26 27 29 31 33 34 33 34 34 33 31 29 29 29 30 32 33 34 34 34 34 34 34 33 33 33 32 30 29 28 29 30 31 31 32 33 35 35 34 34 34 35 36 36 36 36 35 34 33 31 29 28 27 29 30 27 25 26 29 29
8 8 7 6 5 5 5 6 7 6 4 3 3 2 3 5 7 11 15 17 18 18 19 20 21 22 24 26 28 29 31 32 32 34 35 35 33 32 31 33 34 36 37 38 38 38 39 39 38 38 38 37 34 32 31 31 33 34 34 35 37 38 36 35 35 36 36 37 38 37 37 36 35 34 33 31 29 28 30 30 27 26 27 28 28
6 5 5 5 5 5 5 6 6 5 4 4 4 5 5 6 6 5 6 10 13 15 15 15 16 17 19 22 25 26 27 28 29 30 32 33 33 33 34 35 36 38 39 39 40 41 42 42 41 40 40 40 39 36 33 32 34 35 36 37 39 39 37 37 37 37 37 38 37 37 36 35 35 35 34 33 32 31 31 30 29 28 29 29 29
8 6 4 2 1 3 4 5 5 5 4 4 4 4 5 6 6 8 8 6 7 10 11 12 13 14 15 18 21 23 23 25 26 27 27 27 29 30 32 34 35 36 37 38 40 41 41 41 41 40 39 38 38 36 34 32 32 34 35 36 37 36 36 36 37 36 36 36 36 35 34 33 33 33 34 34 34 33 33 33 32 31 31 31 30
10 9 8 7 4 2 1 3 4 5 5 7 6 5 4 5 5 6 7 8 7 6 7 9 10 12 14 16 18 20 22 23 25 25 26 26 26 28 30 31 32 32 34 36 37 38 37 36 36 36 36 35 34 34 33 31 30 31 32 32 32 32 33 33 34 33 33 33 33 34 33 33 33 33 33 34 34 34 35 35 34 33 33 31 30
10 10 11 11 10 8 6 5 5 6 6 7 7 7 6 6 6 6 7 8 9 9 8 8 9 10 13 15 17 18 19 21 22 24 25 26 26 26 28 29 30 30 32 34 35 35 34 33 32 31 32 33 33 33 33 32 32 32 32 31 31 31 32 32 32 32 31 32 33 34 35 34 33 32 32 32 31 30 31 32 33 33 33 32 30
10 10 11 12 13 13 11 9 8 7 6 6 6 7 7 7 6 6 6 7 8 9 9 9 9 10 11 13 15 17 17 18 20 22 23 24 25 26 27 28 28 29 30 31 33 33 33 33 32 31 31 31 32 33 33 34 34 34 34 34 33 33 33 33 32 32 32 33 34 36 36 35 35 34 33 31 29 28 28 29 29 29 30 30 30
12 12 12 12 12 13 14 13 11 8 6 7 7 7 7 8 8 8 9 9 9 10 11 11 12 12 12 13 14 14 15 16 18 19 20 22 23 25 27 28 27 27 28 29 30 30 30 30 31 32 32 32 33 33 34 34 35 36 36 36 35 34 34 33 33 33 34 36 37 38 39 38 37 36 35 33 31 30 30 29 28 27 27 27 27
13 13 13 13 13 12 12 13 12 10 7 7 8 8 8 8 9 10 12 12 12 13 13 14 15 15 14 14 14 13 13 13 13 14 16 19 21 23 25 26 25 26 28 29 30 29 29 29 31 33 34 34 35 36 36 36 35 36 37 37 37 36 35 34 35 36 38 40 41 41 41 40 39 38 37 36 35 34 33 32 31 30 29 28 29
12 13 14 14 14 13 11 10 11 11 10 10 10 10 9 10 11 12 13 13 14 14 14 14 14 15 15 14 14 14 13 13 13 13 14 16 18 21 24 25 25 26 28 29 30 31 31 31 32 32 33 34 36 37 38 38 38 38 38 38 39 38 38 38 39 41 42 43 44 43 42 41 40 40 38 38 37 36 34 33 33 33 30 29 32
11 12 13 14 13 12 11 9 9 10 11 12 12 12 12 12 13 13 13 14 15 16 15 15 14 15 15 15 15 14 14 13 14 15 15 16 17 19 20 23 25 27 28 29 30 31 31 31 32 33 33 34 35 37 37 38 38 38 38 38 37 38 38 38 39 40 40 40 40 40 40 40 40 40 39 39 37 35 33 34 35 35 33 33 36
11 12 12 13 13 13 12 11 10 11 12 13 14 14 15 14 15 15 14 14 13 14 15 16 15 16 17 17 17 17 16 14 14 15 16 17 18 19 20 21 23 25 27 29 31 32 32 31 31 32 32 33 34 35 34 34 34 34 34 34 33 34 35 35 36 37 35 33 33 33 34 36 38 39 40 40 38 35 34 35 36 36 36 37 39
11 12 12 12 12 13 12 12 12 11 13 15 16 17 17 16 15 15 15 14 13 13 14 15 16 17 18 18 17 18 18 16 15 16 16 16 18 19 20 21 22 24 25 28 30 32 34 34 34 34 34 34 34 34 33 32 31 31 30 30 29 29 30 31 32 32 30 27 26 26 27 29 32 34 36 38 37 36 34 34 35 35 36 37 38
11 12 12 11 12 12 12 12 11 11 12 15 17 18 18 17 16 15 14 15 15 14 13 14 14 15 17 18 17 17 17 16 15 16 16 16 17 19 21 22 22 23 24 26 28 29 31 33 35 36 37 37 37 36 35 33 32 31 30 30 29 28 27 27 27 26 26 24 23 23 22 23 25 27 29 32 34 33 32 32 33 34 35 36 37
11 11 12 12 11 12 13 13 12 12 12 14 16 17 18 19 18 16 13 11 12 12 13 13 14 15 16 17 17 16 16 16 16 16 16 17 18 20 21 22 22 23 23 24 25 26 26 27 29 30 32 35 37 37 36 35 34 32 32 32 32 30 29 27 25 24 25 25 25 24 21 20 22 24 25 28 30 32 32 33 33 34 35 37 38
11 11 11 11 11 12 14 15 15 14 14 15 17 18 18 20 20 19 15 14 13 13 14 14 16 17 17 17 16 16 17 17 17 17 17 18 19 20 20 21 21 22 22 22 23 23 24 25 25 25 25 27 29 31 32 32 33 33 34 35 35 34 32 29 27 26 26 27 28 27 24 21 22 24 26 28 30 31 32 32 32 33 36 38 39
12 11 11 12 11 11 13 15 16 16 16 17 19 20 20 21 21 20 21 21 20 19 17 16 15 16 17 17 17 18 17 16 16 16 17 18 19 20 21 21 21 21 22 22 23 23 23 23 24 25 25 24 23 23 24 25 25 27 30 33 35 35 35 32 30 29 28 28 29 31 29 27 25 26 27 29 31 32 33 33 34 35 37 39 39
13 12 12 13 12 12 13 15 17 18 18 19 20 21 22 22 22 22 23 24 25 25 23 21 18 17 16 16 17 17 17 16 16 15 15 16 18 20 21 22 22 23 23 24 24 24 22 20 20 21 23 23 21 20 21 22 22 22 23 26 28 31 32 31 31 30 29 28 30 32 32 32 31 30 31 32 34 36 37 37 37 38 38 38 38
12 11 12 12 13 14 14 15 16 17 18 19 20 21 22 22 22 23 24 25 26 27 26 25 23 20 18 16 17 18 18 18 18 18 18 18 20 21 23 24 25 26 27 27 27 26 25 24 23 21 20 20 20 21 21 21 22 21 21 22 24 26 27 28 29 29 27 27 28 29 31 33 33 32 33 35 36 38 39 39 38 38 37 36 37
11 11 11 11 11 13 14 15 15 16 16 17 18 19 20 20 21 23 24 25 26 27 27 27 26 24 20 18 19 20 21 21 21 22 22 23 23 24 25 26 27 28 29 30 30 30 30 30 29 28 26 25 24 25 25 25 24 24 23 23 23 23 24 26 27 28 28 28 28 28 28 29 31 33 35 37 38 38 38 37 37 37 36 36 37
11 10 10 10 11 11 12 13 13 13 14 15 16 18 19 20 21 22 24 25 26 26 27 27 27 26 24 22 22 24 25 25 25 26 27 28 28 28 29 29 29 30 30 31 31 31 32 32 32 32 31 30 29 28 29 29 29 28 27 26 25 23 23 24 25 26 27 28 29 31 30 29 30 32 34 36 38 39 39 38 37 37 37 37 37
11 11 12 13 13 13 13 13 13 14 15 17 18 19 20 21 22 23 24 25 26 27 28 28 28 27 27 26 26 28 29 29 29 29 30 31 31 32 32 32 32 32 32 33 33 32 33 33 34 33 33 32 31 30 30 30 31 31 30 30 30 27 26 25 26 26 25 25 26 28 29 28 29 32 34 37 39 40 39 38 37 37 37 38 38
13 14 14 16 17 17 17 16 17 18 19 20 20 20 21 22 23 24 25 26 28 28 29 29 29 29 29 28 29 30 31 32 32 31 31 32 33 35 35 36 35 35 35 35 35 35 35 35 35 35 34 34 33 32 31 31 31 31 31 32 33 32 30 29 28 28 27 26 25 25 26 27 30 33 35 38 40 40 39 39 38 37 38 39 39
16 16 16 17 18 19 19 19 19 20 21 22 22 23 24 24 25 26 27 28 30 30 31 31 31 31 31 30 29 30 31 31 32 32 33 34 35 35 36 36 37 37 37 37 36 36 36 35 35 35 35 34 34 33 33 33 32 32 32 31 32 33 34 33 32 32 32 31 30 28 27 28 30 31 32 34 36 37 37 38 38 36 36 37 38
18 18 19 20 20 18 17 16 17 18 20 22 23 24 25 26 27 28 29 30 30 31 33 33 33 33 32 30 29 29 30 30 30 31 33 34 34 34 35 36 36 37 36 35 35 34 34 34 34 34 34 34 34 34 34 34 34 34 34 33 33 33 33 33 34 34 34 35 35 33 31 29 29 30 32 34 35 35 35 36 37 35 35 35 36
19 19 19 19 18 16 15 16 17 18 19 20 21 21 23 24 25 26 28 30 31 32 33 34 34 34 33 31 29 29 30 30 30 30 32 34 35 35 35 36 36 34 33 33 33 33 34 34 35 35 35 34 34 34 34 34 34 35 35 35 35 34 34 33 33 33 32 33 34 35 35 34 32 32 33 34 34 35 35 37 39 39 39 38 37
18 19 19 18 16 15 14 14 15 16 17 18 18 19 21 22 23 24 26 27 29 30 31 32 33 33 33 32 31 31 31 31 31 31 33 35 36 37 38 36 35 34 34 34 34 34 35 35 35 36 36 35 34 34 34 34 34 35 35 36 36 36 35 35 34 33 32 31 31 31 33 35 36 36 36 35 35 35 36 37 39 41 41 39 38
19 20 21 19 16 13 11 11 11 12 14 15 16 18 19 21 22 23 24 25 27 28 29 31 32 33 33 33 33 33 33 32 32 32 33 35 36 37 37 36 36 35 36 36 36 35 35 35 36 37 36 36 35 34 34 34 34 34 35 35 35 36 36 35 35 34 33 32 31 30 30 31 33 36 37 38 38 38 38 39 40 41 41 42 41
21 22 21 17 13 11 11 11 12 13 15 16 17 19 20 20 21 22 23 24 25 26 28 29 30 30 31 31 31 31 31 32 32 33 33 34 35 36 36 37 37 38 37 37 37 36 36 35 35 36 36 36 35 34 34 34 34 34 34 34 34 34 35 35 35 35 34 32 31 31 30 30 31 32 33 35 37 39 40 41 41 42 43 43 44
16 15 12 10 9 10 11 12 13 14 16 17 18 20 21 22 23 24 24 25 26 27 29 29 30 30 30 30 30 31 32 33 34 35 35 36 37 37 37 37 38 38 37 37 36 36 36 35 35 35 35 34 34 33 33 32 32 33 34 34 33 32 33 34 34 34 34 32 32 31 31 31 31 30 30 32 34 37 39 41 43 43 44 44 45
5 5 6 7 9 11 12 12 13 13 15 16 17 19 21 22 22 23 24 26 27 28 29 30 31 31 32 32 33 34 34 34 36 37 38 38 38 37 37 37 38 37 37 36 36 36 36 35 35 34 33 32 32 32 31 31 31 32 33 33 32 32 32 32 33 34 33 32 32 32 32 32 32 31 31 31 33 35 37 39 40 42 44 45 46
6 7 8 10 11 11 13 15 15 15 16 17 17 18 19 21 22 23 24 25 26 26 26 27 28 30 31 32 33 34 34 35 37 38 38 37 36 36 36 37 37 36 36 35 34 34 34 35 35 34 33 31 31 31 31 31 31 32 32 32 32 31 30 31 32 32 32 31 31 31 32 32 33 32 32 33 33 33 34 36 37 38 40 42 44
8 8 8 9 10 12 15 17 18 19 20 21 20 20 20 21 22 23 23 23 24 25 26 27 28 29 30 31 32 33 34 36 37 37 35 34 34 35 36 37 37 36 36 35 33 33 33 34 36 36 34 32 31 31 31 31 31 32 32 32 31 30 30 30 30 29 30 30 31 31 30 31 31 31 31 31 30 30 31 32 32 33 33 35 36
6 5 6 7 9 11 13 13 14 16 18 19 19 20 21 22 23 24 23 23 24 26 28 29 30 31 31 31 31 32 33 34 34 34 34 34 35 36 37 37 37 36 36 35 34 33 33 35 37 37 36 34 33 32 31 31 30 31 31 31 31 30 29 29 28 27 27 28 29 28 27 26 26 27 27 27 27 28 29 29 28 28 29 29 29
Wind_Direction
217 218 217 214 213 211 210 211 212 214 216 217 218 217 217 218 219 218 217 218 219 220 223 226 230 231 227 224 223 224 226 227 229 231 234 235 236 238 239 240 243 243 242 245 245 247 251 252 248 243 246 250 251 253 251 249 252 253 257 281 290 284 282 284 282 272 261 262 274 277 277 282 284 286 289 290 292 296 299 302 305 310 315 315 317
221 222 222 220 218 216 214 213 213 216 217 219 220 219 220 220 220 222 223 224 224 223 224 226 229 230 229 228 229 231 232 231 230 231 235 238 240 240 241 242 246 247 247 246 245 247 252 257 256 249 248 256 261 261 255 248 248 253 255 260 274 284 289 293 297 289 271 263 271 279 280 285 288 289 290 287 286 288 290 294 298 302 305 306 310
225 225 224 224 223 220 218 215 215 216 218 220 222 222 222 222 222 224 226 227 227 226 224 224 227 229 229 230 232 235 237 235 234 235 236 237 242 245 246 248 249 251 254 255 252 251 254 261 267 265 260 262 264 265 262 251 246 250 254 255 259 266 278 285 291 297 289 274 270 275 278 284 288 287 285 283 284 288 290 292 295 297 299 302 308
223 224 224 226 227 226 224 220 216 216 218 220 222 223 224 223 224 227 228 228 228 228 226 226 229 232 233 233 234 237 239 239 240 241 239 237 240 245 249 253 255 256 258 260 257 255 258 262 268 272 272 271 269 268 269 262 250 248 252 258 262 264 269 276 279 285 290 286 283 287 290 292 292 291 290 292 292 292 292 293 294 298 304 309 314
219 219 222 225 226 226 225 224 221 218 217 219 222 225 226 225 227 230 232 232 232 231 231 232 234 237 239 238 236 237 239 241 242 244 243 240 239 241 245 249 255 258 260 261 260 259 259 261 264 269 271 273 273 271 272 271 263 255 254 257 261 263 265 269 273 276 281 285 288 290 292 293 294 296 300 302 301 297 296 296 298 306 317 320 320
221 222 225 226 225 223 222 224 226 222 218 218 220 223 225 226 229 233 236 238 237 235 235 236 239 242 245 245 242 240 241 242 243 245 246 245 243 243 243 245 250 256 259 261 262 263 264 264 265 266 269 272 274 274 273 272 270 266 264 263 262 261 261 263 268 273 276 280 282 284 285 287 290 293 298 300 302 302 303 304 306 312 318 318 317
222 224 227 229 229 228 224 222 224 223 220 220 220 221 223 225 227 231 236 240 241 241 239 238 240 244 248 249 247 246 245 245 245 247 248 248 249 249 248 248 249 252 258 261 262 263 265 268 269 268 269 272 275 277 278 279 280 282 284 284 279 272 268 267 267 270 273 275 278 281 283 285 287 291 296 298 300 303 307 308 309 311 311 310 309
221 223 228 231 232 231 228 223 220 219 220 222 222 222 222 223 225 229 233 237 241 244 245 245 244 244 246 248 249 249 250 250 248 248 250 252 254 255 255 255 254 254 257 260 262 264 266 268 270 270 271 273 277 281 282 283 288 295 298 299 299 295 291 287 282 279 279 278 280 283 286 288 290 293 298 300 301 306 309 309 309 310 307 301 302
216 218 226 231 231 230 229 225 221 220 223 224 223 222 223 223 224 227 232 235 237 241 245 249 250 249 248 248 248 250 252 254 253 252 253 255 258 260 261 260 260 260 261 262 263 265 267 269 271 273 275 277 279 281 280 278 280 287 292 295 295 294 294 295 295 294 293 291 291 293 291 291 294 296 298 300 302 306 307 304 305 309 305 297 299
191 193 201 212 217 219 220 220 220 222 224 225 222 221 221 222 224 227 232 235 237 239 242 244 247 248 250 249 249 249 251 253 256 258 259 261 264 266 266 266 265 264 264 265 266 268 269 270 272 274 276 278 279 280 281 279 277 277 282 286 289 290 289 288 289 290 291 292 295 298 296 296 299 300 300 302 302 302 301 300 301 304 303 300 303
170 179 188 194 203 210 213 214 214 217 220 223 224 224 223 224 226 228 231 234 237 240 243 245 246 246 248 249 250 250 252 254 256 258 261 265 268 270 271 273 273 271 269 267 266 268 270 271 273 275 276 278 279 281 283 283 282 279 277 279 283 285 286 285 284 285 285 287 292 295 295 297 302 304 304 306 307 306 304 303 300 299 299 299 301
166 171 177 181 196 211 215 214 214 216 220 222 225 227 228 229 231 232 233 234 235 239 244 248 249 248 248 249 249 250 252 255 257 259 260 262 265 268 270 273 275 277 276 273 270 269 269 270 272 274 276 278 280 282 283 283 283 281 278 276 276 278 280 281 281 282 282 283 286 289 291 293 297 301 304 308 311 310 308 305 302 300 297 295 294
186 183 182 181 190 202 207 210 212 216 221 223 224 226 227 229 232 234 236 236 236 240 244 247 249 249 249 249 250 250 252 254 256 258 260 261 262 264 267 269 271 274 276 278 278 275 274 273 273 274 276 278 279 281 282 282 283 282 280 277 274 272 273 274 276 277 278 279 280 282 285 288 290 295 301 305 307 307 307 305 304 302 299 295 292
176 186 193 197 200 201 200 201 203 208 214 219 223 225 226 228 231 233 236 238 239 240 242 244 244 244 245 246 247 249 251 254 256 257 259 260 260 262 266 269 271 273 274 275 277 278 279 278 278 279 279 280 280 281 282 282 282 281 281 278 275 272 270 269 270 271 273 274 276 278 282 285 287 292 298 300 300 302 305 305 304 302 298 294 292
139 148 158 172 189 199 202 203 206 210 212 214 218 222 226 229 231 233 235 237 240 241 241 243 243 240 241 242 244 246 249 252 255 257 258 259 258 258 261 264 267 270 272 273 274 276 277 278 278 278 279 280 281 282 283 283 283 282 280 278 277 276 274 272 272 272 273 274 276 279 282 285 287 290 294 296 296 299 302 302 301 299 295 292 290
112 122 130 135 143 155 169 187 203 213 219 222 225 227 228 231 233 235 236 237 239 241 242 243 244 242 241 241 243 245 247 250 253 256 258 260 259 256 255 257 259 262 265 268 270 271 273 274 275 276 276 276 278 280 282 283 282 281 280 281 281 281 280 281 280 279 279 279 280 281 283 284 286 288 290 292 293 295 296 295 297 297 294 291 289
88 92 99 108 116 121 119 119 159 211 223 225 230 237 240 242 241 241 242 243 244 245 245 245 244 244 244 245 246 247 246 247 250 253 256 258 258 256 253 253 256 259 263 266 268 269 271 271 272 273 273 273 274 277 279 280 279 279 280 281 283 283 284 286 286 286 285 285 286 286 287 287 286 286 286 287 288 290 290 290 294 296 294 292 291
74 74 70 61 43 30 36 45 49 42 307 217 225 241 250 254 253 250 249 249 248 249 249 248 246 245 245 246 248 249 248 247 248 251 253 253 255 255 254 254 257 261 264 267 269 271 272 273 273 273 272 272 272 273 276 277 277 278 279 280 280 281 284 287 288 289 289 289 289 289 290 291 291 289 288 287 287 287 285 286 291 292 289 289 291
50 58 55 43 32 32 33 31 36 44 50 55 47 359 308 290 277 267 259 255 253 254 255 255 253 251 249 248 250 251 250 248 248 250 251 251 252 254 255 257 259 261 265 268 270 271 272 272 273 273 275 275 274 272 273 274 275 277 278 279 279 281 284 288 289 290 290 290 289 290 291 292 293 293 291 288 286 284 282 284 287 285 284 285 288
356 16 35 43 42 44 39 27 25 33 43 45 43 35 24 16 5 343 302 272 261 259 261 263 262 260 256 254 253 254 254 253 251 251 252 253 254 256 257 258 259 261 263 266 269 271 271 271 271 272 274 276 274 272 271 273 275 277 278 278 279 282 286 289 289 290 290 288 287 287 288 290 291 291 290 288 285 282 281 281 281 280 280 281 283
317 324 327 341 49 51 38 26 20 13 356 354 6 19 20 17 21 27 20 345 291 269 267 268 271 272 268 262 258 256 257 257 255 253 254 256 257 259 260 261 262 264 266 267 269 271 271 271 271 272 273 274 273 271 270 271 274 277 277 277 279 283 286 288 288 289 288 286 284 283 283 284 285 285 285 284 283 282 281 281 280 278 278 277 278
300 306 304 295 277 261 307 353 360 353 342 338 336 333 342 352 356 11 17 5 347 324 300 288 283 281 277 271 264 260 257 258 259 258 257 257 259 260 262 263 266 268 269 269 269 270 272 274 275 275 275 275 275 272 268 268 270 272 273 275 278 282 285 286 287 287 284 282 281 281 279 279 279 279 280 280 281 281 281 281 280 279 278 276 275
286 290 291 288 281 273 270 284 310 325 328 326 323 318 314 318 325 336 347 347 343 341 335 323 311 298 286 275 266 263 262 261 260 261 261 260 260 261 262 264 267 270 271 271 270 270 271 273 274 276 275 273 273 271 268 266 266 266 267 269 273 277 280 281 283 284 282 280 279 278 277 276 275 275 277 279 280 282 282 282 281 280 279 276 274
267 273 278 280 282 282 281 281 288 305 313 304 298 299 295 295 302 311 318 320 318 321 327 328 325 321 311 293 277 272 273 270 265 262 263 263 262 261 260 261 264 268 272 274 275 275 274 273 272 273 274 273 272 270 269 269 269 268 268 269 271 273 275 277 280 282 282 280 278 277 277 277 276 275 276 279 283 285 285 285 283 281 280 279 276
260 262 265 268 275 281 285 287 289 296 302 291 281 278 279 283 289 292 295 298 301 307 313 317 317 319 319 313 301 291 288 285 278 272 268 265 263 262 261 261 262 265 269 272 274 275 275 274 271 269 269 270 271 270 269 269 270 270 271 271 272 273 275 276 278 279 280 280 279 279 278 277 277 276 276 279 280 281 282 283 283 283 281 279 277
265 260 258 259 264 272 282 291 295 295 287 273 266 266 269 274 278 285 292 295 296 301 304 306 309 310 311 312 308 301 298 299 298 292 285 276 269 265 263 263 263 264 264 267 269 271 271 271 270 268 267 268 269 270 270 270 270 270 270 271 272 273 274 276 276 277 277 278 279 278 277 276 278 278 277 276 275 275 277 280 282 281 279 276 273
277 266 259 258 259 262 272 287 297 298 290 276 266 262 261 265 272 280 288 291 294 299 301 301 303 306 306 307 305 299 297 300 305 306 301 292 282 273 269 266 265 265 265 266 268 270 270 270 270 270 270 269 268 269 271 272 272 272 271 272 273 273 275 276 277 277 277 278 278 277 276 274 274 275 276 275 274 274 275 278 279 279 277 275 273
291 278 266 259 255 253 259 273 286 290 289 286 282 276 270 270 275 281 287 292 296 299 301 301 303 304 305 307 306 300 294 294 301 307 307 303 298 293 286 279 273 271 270 269 268 268 269 270 272 273 273 272 271 271 271 273 274 274 275 275 276 276 277 278 279 279 280 280 279 278 276 274 272 272 273 274 274 273 274 276 277 277 278 279 277
302 292 277 266 257 250 252 260 271 282 288 291 292 291 290 290 291 289 287 287 289 289 291 295 299 303 306 310 311 308 301 296 300 306 307 303 301 302 302 298 292 287 283 279 275 271 269 269 271 273 274 273 273 273 274 275 276 277 279 280 279 279 279 279 280 281 281 281 280 277 275 273 272 272 273 273 272 272 273 275 276 277 279 279 277
306 302 291 276 260 252 255 261 268 282 293 294 294 298 302 304 304 298 290 283 278 278 282 288 294 300 303 306 308 309 306 302 299 300 300 298 296 296 299 303 305 304 299 294 288 283 279 276 274 275 276 276 276 275 275 275 276 276 278 279 279 279 279 280 282 282 281 280 280 277 273 272 272 272 273 272 271 272 273 273 273 274 275 274 273
300 300 298 285 264 254 259 266 271 282 292 294 296 302 306 306 305 302 295 289 286 284 286 291 295 299 301 300 300 299 299 296 293 291 292 293 292 292 294 298 304 308 307 304 300 298 295 290 285 282 281 281 280 280 279 279 279 280 281 280 278 277 278 279 281 282 282 281 279 275 272 273 273 274 274 273 272 272 270 270 270 270 270 269 269
292 293 297 293 274 260 261 268 277 285 291 294 296 299 301 303 306 307 304 301 300 298 296 299 301 300 299 298 296 293 289 286 285 285 286 290 293 294 295 297 301 304 307 309 308 308 308 305 301 296 292 287 285 284 285 285 284 285 288 287 284 280 279 278 280 282 282 281 280 278 276 276 278 280 279 278 275 273 270 269 269 269 269 269 269
288 289 294 295 286 271 266 270 277 285 290 293 293 295 298 301 305 307 308 308 309 304 300 303 305 304 300 297 293 291 288 286 287 289 289 291 293 295 296 297 299 300 303 307 310 310 310 308 307 306 304 299 293 290 289 289 287 286 287 289 287 285 284 283 283 282 279 276 277 279 281 282 282 282 282 280 278 275 272 271 271 271 271 272 272
281 284 286 288 288 282 274 274 278 282 287 290 291 294 298 300 301 303 306 310 312 310 308 310 311 308 303 297 291 289 291 295 298 297 295 293 293 294 295 295 297 298 300 303 307 310 311 310 306 304 306 306 303 297 295 295 293 289 286 286 286 288 289 288 286 283 279 275 273 274 277 279 279 279 279 280 279 277 274 273 274 275 276 277 277
275 275 273 272 274 276 277 278 280 283 287 290 291 293 294 295 295 298 302 306 309 311 311 314 314 309 303 297 291 288 292 299 302 299 295 292 292 293 293 292 293 295 298 302 306 309 310 309 303 299 299 302 303 301 296 295 296 295 292 289 288 288 289 288 287 286 284 280 276 274 274 274 274 275 276 277 277 276 275 275 278 280 280 280 279
270 268 268 267 267 271 275 277 280 284 287 290 291 291 291 292 293 295 298 300 303 305 306 308 310 309 304 297 289 284 285 289 292 292 293 293 293 294 295 295 297 299 301 303 305 306 305 302 297 293 291 293 295 295 292 289 288 288 288 289 289 289 287 285 284 284 282 280 279 277 274 270 269 269 271 272 272 272 273 275 278 280 280 278 276
261 259 266 271 271 274 275 276 277 280 282 285 288 289 289 290 290 291 292 294 295 297 300 303 306 308 307 302 295 288 285 284 285 286 288 289 290 292 295 298 300 301 301 302 302 302 303 302 299 296 293 291 290 289 289 290 289 286 282 279 279 282 285 284 283 280 277 273 272 271 268 266 266 265 266 268 270 272 274 275 277 278 277 276 275
262 256 260 266 269 271 272 271 271 274 276 279 281 282 284 285 286 286 288 290 293 296 299 301 302 303 305 306 305 300 296 291 288 286 285 286 287 289 291 294 297 299 300 301 300 300 300 300 300 299 297 294 291 289 287 288 289 289 288 283 276 272 274 277 280 280 277 273 270 267 263 261 261 262 264 267 270 272 274 276 277 277 275 273 271
264 254 249 251 255 259 261 261 262 267 272 274 275 276 278 280 283 285 288 291 293 295 296 296 296 297 299 302 303 302 301 299 296 294 292 292 293 293 294 294 296 297 299 300 300 299 299 298 297 298 298 296 294 291 288 286 286 286 287 287 284 279 275 274 275 278 279 277 274 271 266 262 262 265 268 270 271 272 273 274 275 274 273 271 269
272 268 261 257 254 255 257 259 260 262 267 269 270 273 276 278 281 283 286 288 290 291 291 291 291 292 294 297 299 299 300 300 300 300 300 299 299 298 298 298 297 296 297 298 299 300 300 298 296 296 296 296 295 292 289 287 285 284 283 284 284 283 282 280 278 278 278 278 277 275 272 270 270 272 272 272 272 272 273 274 274 272 270 270 269
278 279 277 274 269 266 266 265 263 261 261 261 261 264 268 272 275 278 281 283 285 286 287 287 287 288 290 292 295 297 297 298 299 301 301 301 300 300 300 300 300 299 298 298 299 300 300 299 297 296 295 294 294 293 290 288 286 284 282 282 281 281 280 280 279 278 278 278 278 278 276 273 271 271 272 273 273 272 272 272 272 269 267 266 265
276 276 277 279 279 277 273 267 264 263 263 262 261 261 263 267 271 274 277 279 281 283 284 285 285 286 287 290 293 294 294 295 297 298 298 298 299 301 301 301 302 302 302 302 301 302 301 300 299 297 295 294 293 292 290 288 287 285 284 282 282 281 280 278 277 276 275 273 273 274 275 273 269 266 265 266 267 267 265 263 263 262 262 263 264
279 280 279 280 279 275 268 261 260 263 266 269 271 272 272 273 274 275 276 277 278 280 282 283 284 284 286 288 291 291 292 293 295 296 295 296 297 300 302 302 303 304 305 305 305 304 303 301 300 299 297 295 294 293 291 289 287 286 285 284 284 284 283 282 281 280 277 274 270 267 267 268 269 267 265 264 265 265 262 260 259 258 258 259 261
280 282 284 285 284 279 272 269 267 267 267 272 277 280 280 280 280 280 279 279 279 280 281 282 283 284 285 287 289 290 291 293 294 294 294 294 294 296 299 302 304 306 307 308 307 305 303 302 301 300 299 296 294 294 293 291 288 286 285 285 285 286 286 287 287 286 285 283 279 274 268 265 263 263 264 265 266 267 266 264 262 261 260 261 263
277 282 287 292 293 292 292 294 291 284 280 280 281 282 282 283 284 285 284 282 282 283 283 283 284 285 285 287 288 289 290 292 293 293 293 294 295 298 300 302 305 306 307 307 307 306 305 303 302 301 300 298 296 295 294 293 291 288 286 286 287 287 288 288 289 289 287 286 284 283 279 274 268 264 262 262 263 265 266 267 266 266 265 266 267
274 279 285 290 294 296 297 296 292 288 285 283 281 281 281 281 282 283 283 284 284 285 285 285 285 285 285 286 286 287 289 291 293 293 293 294 297 300 301 301 302 303 304 304 304 304 304 302 300 299 299 299 299 298 298 297 296 292 289 288 288 288 288 288 288 287 287 286 285 284 283 281 279 275 271 267 265 265 265 266 267 267 267 268 269
273 279 286 292 293 292 291 291 290 288 286 283 281 279 278 278 281 282 282 283 284 284 284 284 284 284 285 285 286 287 289 291 293 295 295 295 296 297 297 297 298 299 299 299 300 301 301 300 298 298 298 299 300 300 302 302 301 297 292 290 289 287 286 286 286 285 285 285 286 285 284 284 283 282 280 277 272 268 266 265 265 266 267 267 268
285 293 298 293 286 284 285 286 286 286 285 285 285 282 280 280 282 284 282 282 281 281 281 281 282 282 284 286 287 289 291 292 294 295 296 295 293 293 292 292 293 294 295 295 296 297 298 299 298 297 297 298 299 300 302 303 302 299 294 291 289 286 285 283 283 284 284 284 284 284 285 285 284 284 283 281 278 274 271 268 267 267 267 267 267
296 292 286 282 282 284 283 280 278 279 281 282 286 287 285 282 282 282 282 282 282 281 281 281 281 280 281 282 284 285 287 288 290 292 293 292 291 290 290 290 290 291 292 293 293 294 296 297 297 296 296 295 296 297 299 300 300 298 295 292 289 286 284 281 280 281 281 282 282 282 282 283 284 285 284 283 281 278 276 274 273 272 270 269 268
287 291 292 291 291 287 281 277 276 276 276 275 278 283 284 282 281 281 282 284 283 282 281 281 281 281 281 281 282 282 283 285 287 289 290 290 290 290 290 290 291 291 291 291 292 293 294 295 295 296 295 294 294 294 295 296 297 297 296 293 289 286 283 280 279 279 280 280 281 281 282 283 285 286 287 287 287 285 284 283 283 281 279 276 275
294 301 314 315 304 293 289 290 289 286 282 280 282 284 285 283 283 284 285 285 283 282 281 282 283 284 285 285 285 286 286 287 288 289 290 291 292 292 291 292 292 292 291 292 291 292 292 292 292 294 295 295 294 294 293 294 295 296 295 293 289 285 281 278 278 279 280 279 280 281 282 284 285 286 287 288 289 289 289 290 289 288 285 282 281